Overview Statistics Trail Chart Weather Telemetry Raw packets
 

This is the latest recevied weather packets stored in our database for station/object LU1MQF-13. If no packets are shown the sender has not sent any weather packets the latest 10 day(s).

<< 7 8 9 10 11 12 13 >>
Time Temp. Humidity Pressure Rain* Wind** Luminosity Snow
1777836424 21.11° C 30% 933.7 hPa - - - -
1777835524 21.11° C 30% 933.7 hPa - - - -
1777834624 21.11° C 33% 933.5 hPa - - - -
1777833723 21.11° C 30% 933.4 hPa - - - -
1777832824 21.11° C 30% 933.6 hPa - - - -
1777831924 20° C 31% 933.9 hPa - - - -
1777831023 20° C 31% 934 hPa - - - -
1777830124 20° C 31% 934.1 hPa - - - -
1777829224 20° C 31% 934.4 hPa - - - -
1777828324 18.89° C 32% 934.7 hPa - - - -
1777827424 18.89° C 33% 935.1 hPa - - - -
1777826523 18.89° C 33% 935.1 hPa - - - -
1777825624 18.89° C 35% 935.3 hPa - - - -
1777824724 18.89° C 35% 935.7 hPa - - - -
1777823824 18.89° C 35% 936 hPa - - - -
1777822924 18.89° C 34% 936.2 hPa - - - -
1777822024 17.78° C 34% 936.7 hPa - - - -
1777821123 17.78° C 34% 936.9 hPa - - - -
1777820223 17.22° C 34% 937.1 hPa - - - -
1777819324 17.22° C 34% 937.3 hPa - - - -
1777818424 17.22° C 35% 937.7 hPa - - - -
1777817523 17.22° C 36% 938.1 hPa - - - -
1777816623 16.11° C 37% 938.1 hPa - - - -
1777815723 16.11° C 38% 938.4 hPa - - - -
1777814823 13.89° C 38% 938.5 hPa - - - -

* Rain since midnight (hover to see other rain measurements)
** Current wind speed in m/s (hover to see current wind gust speed)